FW6696 Weather Reports


time (UTC)temp
C
wind
direction
speed
KPH
gust
KPH
rain 1hr
cm
rain 24hr
cm
rain mn
cm
humidity
%
barometer
mb
20260508111025 3 90 0.0 0.0 0.00 0.00 0.00 99 1004.3
20260508110033 2 85 0.0 0.0 0.00 0.00 0.00 99 1004.5
20260508105013 2 83 0.0 0.0 0.00 0.00 0.00 99 1004.5
20260508104014 2 85 0.0 0.0 0.00 0.00 0.00 99 1004.0
20260508102043 2 74 0.0 0.0 0.00 0.00 0.00 99 1004.3
20260508095015 2 85 0.0 0.0 0.00 0.00 0.00 99 1003.9
20260508094023 2 83 0.0 0.0 0.00 0.00 0.00 99 1003.9
20260508093026 2 89 0.0 0.0 0.00 0.00 0.00 99 1004.2
20260508092023 2 76 0.0 0.0 0.00 0.00 0.00 99 1003.9
20260508091019 2 84 0.0 0.0 0.00 0.00 0.00 99 1003.8
20260508090008 2 81 0.0 0.0 0.00 0.00 0.00 99 1003.8
20260508085020 2 79 0.0 0.0 0.00 0.00 0.00 99 1003.7
20260508084044 2 76 0.0 0.0 0.00 0.00 0.00 99 1003.6
20260508082028 2 83 0.0 0.0 0.00 0.00 0.00 99 1003.9
20260508081028 2 85 0.0 0.0 0.00 0.00 0.00 99 1003.6
20260508080015 3 86 0.0 0.0 0.00 0.00 0.00 99 1003.6
20260508074019 3 74 0.0 0.0 0.00 0.00 0.00 99 1003.8
20260508072026 3 81 0.0 0.0 0.00 0.00 0.00 99 1003.6
20260508071005 3 83 0.0 0.0 0.00 0.00 0.00 99 1003.6
20260508070008 3 83 0.0 0.0 0.00 0.00 0.00 99 1003.7
20260508065007 3 81 0.0 0.0 0.00 0.00 0.00 99 1003.6
20260508064017 3 73 0.0 0.0 0.00 0.00 0.00 99 1003.6
20260508062030 3 89 0.0 0.0 0.00 0.00 0.00 99 1003.6
20260508061011 3 86 0.0 0.0 0.00 0.00 0.00 98 1003.8
20260508060037 3 74 1.6 3.2 0.00 0.00 0.00 98 1003.8
20260508055019 4 91 0.0 0.0 0.00 0.00 0.00 98 1003.8
20260508054046 4 83 0.0 0.0 0.00 0.00 0.00 98 1003.7
20260508053039 4 80 0.0 0.0 0.00 0.00 0.00 97 1003.9
20260508052034 5 83 0.0 0.0 0.00 0.00 0.00 97 1003.7
20260508050026 5 85 0.0 0.0 0.00 0.00 0.00 96 1003.9
20260508045003 5 83 0.0 0.0 0.00 0.00 0.00 95 1003.6
20260508044017 5 85 0.0 0.0 0.00 0.00 0.00 94 1003.7
20260508043011 5 88 0.0 0.0 0.00 0.00 0.00 94 1003.7
20260508042008 5 93 0.0 0.0 0.00 0.00 0.00 93 1003.8
20260508041035 6 100 0.0 0.0 0.00 0.00 0.00 92 1003.9
20260508040024 6 76 0.0 0.0 0.00 0.00 0.00 91 1003.7
20260508035031 6 64 1.6 3.2 0.00 0.00 0.00 90 1003.8
20260508034034 6 83 0.0 0.0 0.00 0.00 0.00 87 1003.6
20260508032022 6 87 0.0 0.0 0.00 0.00 0.00 84 1003.5
20260508031032 6 79 0.0 0.0 0.00 0.00 0.00 83 1003.6
20260508030035 7 95 0.0 0.0 0.00 0.00 0.00 81 1003.5
20260508025038 7 97 0.0 0.0 0.00 0.00 0.00 80 1003.2
20260508024034 7 89 0.0 0.0 0.00 0.00 0.00 79 1003.2
20260508022017 8 79 0.0 0.0 0.00 0.00 0.00 71 1002.9
20260508021013 8 84 0.0 0.0 0.00 0.00 0.00 69 1002.6
20260508020013 8 89 0.0 0.0 0.00 0.00 0.00 66 1002.6
20260508014044 10 94 0.0 0.0 0.00 0.00 0.00 62 1002.5
20260508013017 11 89 0.0 0.0 0.00 0.00 0.00 55 1002.3
20260508012034 11 68 1.6 3.2 0.00 0.00 0.00 52 1002.1
20260508011002 11 60 1.6 3.2 0.00 0.00 0.00 50 1001.9
20260508010026 12 78 1.6 3.2 0.00 0.00 0.00 50 1002.0
20260508005043 12 85 0.0 0.0 0.00 0.00 0.00 49 1001.9
20260508004019 12 81 1.6 3.2 0.00 0.00 0.00 48 1001.7
20260508002024 13 73 0.0 0.0 0.00 0.00 0.00 48 1001.6
20260508001016 13 108 0.0 0.0 0.00 0.00 0.00 46 1001.2
20260508000035 13 52 1.6 3.2 0.00 0.00 0.00 47 1001.3
20260507235021 13 69 1.6 3.2 0.00 0.00 0.00 47 1001.1
20260507234004 13 93 0.0 0.0 0.00 0.00 0.00 49 1001.1
20260507232045 15 95 0.0 0.0 0.00 0.00 0.00 47 1000.8
20260507231028 15 66 1.6 3.2 0.00 0.00 0.00 46 1000.9
20260507225031 15 7 3.2 4.8 0.00 0.00 0.00 51 1001.0
20260507224045 16 140 3.2 4.8 0.00 0.00 0.00 51 1000.5
20260507223006 15 69 3.2 6.4 0.00 0.00 0.00 46 1000.7
20260507222006 15 40 3.2 4.8 0.00 0.00 0.00 49 1000.5
20260507221004 16 100 0.0 0.0 0.00 0.00 0.00 48 1000.4
20260507220017 17 53 3.2 4.8 0.00 0.00 0.00 49 1000.2
20260507215002 17 60 3.2 4.8 0.00 0.00 0.00 48 1000.3
20260507214039 17 178 3.2 6.4 0.00 0.00 0.00 51 1000.2
20260507213005 17 152 1.6 4.8 0.00 0.00 0.00 52 1000.1
20260507212004 16 62 1.6 3.2 0.00 0.00 0.00 52 1000.1
20260507211010 16 34 1.6 3.2 0.00 0.00 0.00 50 1000.1
20260507210024 16 48 1.6 3.2 0.00 0.00 0.00 54 999.8
20260507205002 16 108 1.6 3.2 0.00 0.00 0.00 56 999.9
20260507204031 16 108 0.0 0.0 0.00 0.00 0.00 48 999.9
20260507203009 17 105 0.0 0.0 0.00 0.00 0.00 49 999.7
20260507202005 17 48 1.6 3.2 0.00 0.00 0.00 48 999.9
20260507201033 18 100 3.2 4.8 0.00 0.00 0.00 46 999.7
20260507195028 18 95 1.6 3.2 0.00 0.00 0.00 51 999.9
20260507194033 17 116 1.6 3.2 0.00 0.00 0.00 53 1000.1
20260507193007 17 79 1.6 3.2 0.00 0.00 0.00 50 1000.3
20260507191021 17 96 1.6 3.2 0.00 0.00 0.00 53 1000.4
20260507190011 17 86 3.2 3.2 0.00 0.00 0.00 52 1000.7
20260507185013 17 104 3.2 4.8 0.00 0.00 0.00 56 1000.6
20260507184010 16 71 1.6 4.8 0.00 0.00 0.00 59 1000.9
20260507183005 17 299 1.6 3.2 0.00 0.00 0.00 57 1000.6
20260507181006 17 89 3.2 4.8 0.00 0.00 0.00 54 1000.6
20260507180027 17 73 4.8 4.8 0.00 0.00 0.00 54 1000.9
20260507175019 17 31 3.2 4.8 0.00 0.00 0.00 55 1000.8
20260507174016 17 116 3.2 3.2 0.00 0.00 0.00 56 1000.9
20260507172017 17 160 1.6 4.8 0.00 0.00 0.00 57 1001.0
20260507170033 15 79 1.6 3.2 0.00 0.00 0.00 59 1001.4
20260507165016 16 77 0.0 0.0 0.00 0.00 0.00 58 1001.2
20260507164031 16 102 3.2 4.8 0.00 0.00 0.00 57 1001.4
20260507163026 16 135 6.4 8.0 0.00 0.00 0.00 65 1001.5
20260507162008 16 90 3.2 3.2 0.00 0.00 0.00 61 1001.6
20260507161024 15 89 0.0 0.0 0.00 0.00 0.00 63 1001.6
20260507154009 14 102 0.0 0.0 0.00 0.00 0.00 70 1001.8
20260507153013 13 91 3.2 4.8 0.00 0.00 0.00 67 1001.8
20260507152039 14 73 4.8 6.4 0.00 0.00 0.00 63 1001.8
20260507151012 14 112 3.2 4.8 0.00 0.00 0.00 69 1002.1
20260507150018 14 167 4.8 6.4 0.00 0.00 0.00 65 1002.0
20260507145016 13 83 0.0 0.0 0.00 0.00 0.00 67 1002.2
20260507143013 12 89 1.6 3.2 0.00 0.00 0.00 66 1002.1
20260507142005 13 100 0.0 0.0 0.00 0.00 0.00 76 1002.2
20260507140025 12 106 0.0 0.0 0.00 0.00 0.00 76 1002.6
20260507135034 12 83 3.2 4.8 0.00 0.00 0.00 80 1002.7
20260507134037 12 77 0.0 0.0 0.00 0.00 0.00 79 1002.6
20260507133039 11 93 0.0 0.0 0.00 0.00 0.00 79 1002.7
20260507132010 11 104 0.0 0.0 0.00 0.00 0.00 85 1002.6
20260507131040 11 101 0.0 0.0 0.00 0.00 0.00 87 1002.6
20260507130006 10 75 1.6 3.2 0.00 0.00 0.00 91 1002.6
20260507125011 11 98 1.6 3.2 0.00 0.00 0.00 97 1002.7
20260507124023 11 114 1.6 3.2 0.00 0.00 0.00 98 1002.4
20260507123028 10 101 0.0 0.0 0.00 0.00 0.00 99 1002.6
20260507122017 10 98 0.0 0.0 0.00 0.00 0.00 99 1002.6
20260507121010 10 90 0.0 0.0 0.00 0.00 0.00 99 1002.7
20260507115008 10 98 0.0 0.0 0.00 0.00 0.00 99 1002.5
20260507113002 10 95 0.0 0.0 0.00 0.00 0.00 99 1002.8
20260507112035 10 95 0.0 0.0 0.00 0.00 0.00 99 1002.5